Regional Weather Roundup
Issued by NWS Sterling, VA

Home | Current Version | Previous Version | Graphics & Text | Print | Product List | Glossary Off
Versions: 1 2 3 4 5 6 7 8 9 10 11 12 13 14 15 16 17 18 19 20 21 22 23 24 25 26 27 28 29 30 31 32 33 34 35 36 37 38 39 40 41 42 43 44 45 46 47 48 49

000
ASUS41 KLWX 310010
RWRLWX

REGIONAL WEATHER ROUNDUP
NATIONAL WEATHER SERVICE BALTIMORE MD/WASHINGTON DC
800 PM EDT THU JUL 30 2015

Note: "FAIR" indicates few or no clouds below 12,000 feet
with no significant weather and/or obstructions to visibility.
 TC=TEMPERATURE CELSIUS

 * =Non NWS site. Station does not report precipitation (e.g. rain,
    snow, etc.), thunder, or fog.

DCZ001-MDZ009-015-VAZ040>042-051-053>054-310100-
WASHINGTON METRO

CITY           SKY/WX    TMP DP  RH WIND       PRES   REMARKS
WASHINGTON NAT MOCLDY    83  74  74 S7        29.87S
DULLES         MOCLDY    81  76  84 SW9       29.88R
ANDREWS AFB    MOCLDY    79  75  87 S6        29.87S
FT BELVOIR     CLOUDY    79  75  89 CALM      29.87R
QUANTICO       MOCLDY    79  74  83 W3        29.84S
COLLEGE PARK*  MOCLDY    82  73  74 S5        29.86S
LEESBURG*      MOCLDY    82  68  61 NW9G17    29.90R
MANASSAS*      MOCLDY    81  79  94 CALM      29.89R
GAITHERSBURG*  CLOUDY    82  72  69 NW5       29.92R

$$

MDZ006>007-011-014-310100-
BALTIMORE METRO

CITY           SKY/WX    TMP DP  RH WIND       PRES   REMARKS
BWI AIRPORT    MOCLDY    81  76  84 SW3       29.86R
MD SCIENCE CTR   N/A     84  76  76 MISG      29.85R HX  93
MARTIN STATE   PTCLDY    82  79  89 S9        29.87R HX  93
ANNAPOLIS      PTCLDY    80  74  81 S3        29.86R
FORT MEADE*    PTCLDY    79  75  89 CALM      29.89R

$$

MDZ012-015-019>023-310100-
MARYLAND EASTERN SHORE

CITY           SKY/WX    TMP DP  RH WIND       PRES   REMARKS
OCEAN CITY     CLOUDY    82  75  79 SW12      29.86S
SALISBURY      LGT RAIN  77  75  93 W7        29.87R FOG
BAY BRIDGE AP*   N/A     79  73  83 SW6       29.87R
CAMBRIDGE*     MOCLDY    77  73  88 W3        29.87R
EASTON*        MOCLDY    79  79 100 SW7       29.90

$$

MDZ017>025-310100-
SOUTHERN MARYLAND

CITY           SKY/WX    TMP DP  RH WIND       PRES   REMARKS
PATUXENT RIVER CLOUDY    76  74  93 S3        29.87F
ST INIGOES     CLOUDY    77  75  93 E3        29.86F FOG
LEONARDTOWN*   CLOUDY    75  72  88 CALM      29.89S

$$

MDZ003>005-310100-
NORTH CENTRAL MARYLAND

CITY           SKY/WX    TMP DP  RH WIND       PRES   REMARKS
FREDERICK*     CLEAR     84  66  54 CALM      29.89R
HAGERSTOWN APT CLEAR     85  58  39 NW7       29.89R
WESTMINSTER*   PTCLDY    84  72  65 NW3       29.90R

$$

MDZ501>502-310100-
WESTERN MARYLAND

CITY           SKY/WX    TMP DP  RH WIND       PRES   REMARKS
OAKLAND*       CLEAR     70  61  73 W8        30.06S
CUMBERLAND*    CLEAR     86  54  32 NW7       29.96R

$$

VAZ025>031-310100-
SHENANDOAH VALLEY

CITY           SKY/WX    TMP DP  RH WIND       PRES   REMARKS
WINCHESTER*    PTCLDY    84  61  45 NW8       29.92R
FRONT ROYAL*   FAIR      79  68  69 CALM      29.90R
LURAY*         FAIR      86  63  45 N7        29.93R
NEW MARKET*    FAIR      77  69  77 CALM      29.91R
STAUNTON*      PTCLDY    83  72  68 CALM      29.96R
WAYNESBORO*    FAIR      81  71  73 CALM      29.96R

$$

WVZ021-048>050-054>055-310100-
EASTERN WEST VIRGINIA PANHANDLE

CITY           SKY/WX    TMP DP  RH WIND       PRES   REMARKS
MARTINSBURG    PTCLDY    84  59  42 NW7       29.90R
PETERSBURG*    CLEAR    N/A N/A N/A NW6       29.97R

$$

VAZ036>039-050-310100-
CENTRAL FOOTHILLS

CITY           SKY/WX    TMP DP  RH WIND       PRES   REMARKS
CHARLOTTESVILL MOCLDY    77  74  90 NW3       29.91R
CULPEPER*      CLOUDY    80  74  83 CALM      29.90R
ORANGE*        CLOUDY    81  77  89 CALM      29.91R
GORDONSVILLE*  FAIR      77  75  94 CALM      29.90R
WARRENTON*     FAIR      81  77  88 CALM      29.88S

$$

VAZ055>057-310100-
NORTH AND CENTRAL PIEDMONT

CITY           SKY/WX    TMP DP  RH WIND       PRES   REMARKS
FREDERICKSBRG* LGT RAIN  80  80 100 CALM      29.87R HX  90
STAFFORD*      CLOUDY    77  74  91 SW3       29.92S

$$

NCZ024-NYZ072-PAZ021-071-VAZ022-071-310100-
OTHER REGIONAL OBSERVATIONS

CITY           SKY/WX    TMP DP  RH WIND       PRES   REMARKS
NEW YORK CITY  CLOUDY    78  73  84 VRB3      29.84S HAZE
PHILADELPHIA   MOCLDY    80  73  79 SW8       29.85R
PITTSBURGH     PTCLDY    80  57  45 W8        29.97R
ROANOKE        PTCLDY    84  65  52 NW10      29.98R
RICHMOND       MOCLDY    86  75  69 S3        29.87R HX  95
RALEIGH        MOCLDY    86  75  69 NE5       29.88R HX  95

$$

ANZ530>537-310100-
MARINE OBSERVATIONS

STATION/POSITION TIME  TEMP    WIND        PRES
                       AIR SEA DIR/SP/G
                 (UTC) (F)     (DEG/KT/KT) (MB)
THOMAS PT LIGHT  0000      81  220/  9/ 10 1011.8R
BALT KEY BRIDGE  2300   81     180/  6/  7 1010.4R
COVE POINT       2300   77     240/  7/  8 1012.1F
LEWISETTA        2300   76 86  290/  2/  3 1011.4R
SOLOMONS ISLAND  2300      83                N/A
PINEY POINT      2300          240/  2/  3   N/A

$$




USA.gov is the U.S. government's official web portal to all federal, state and local government web resources and services.